This is the latest recevied weather packets stored in our database for station/object KD2VWU. If no packets are shown the sender has not sent any weather packets the latest 10 day(s).
| Time | Temp. | Humidity | Pressure | Rain* | Wind** | Luminosity | Snow |
|---|---|---|---|---|---|---|---|
| 1777820445 | 8.33° C | 61% | 1008.2 hPa | 0 mm | - | - | - |
| 1777820142 | 8.33° C | 58% | 1008.2 hPa | 0 mm | - | - | - |
| 1777819839 | 8.33° C | 59% | 1007.9 hPa | 0 mm | - | - | - |
| 1777819537 | 8.33° C | 59% | 1008.2 hPa | 0 mm | - | - | - |
| 1777819234 | 8.33° C | 57% | 1008 hPa | 0 mm | - | - | - |
| 1777818931 | 8.89° C | 56% | 1008 hPa | 0 mm | - | - | - |
| 1777818627 | 8.33° C | 62% | 1008.2 hPa | 0 mm | - | - | - |
| 1777818325 | 7.78° C | 61% | 1008.1 hPa | 0 mm | - | - | - |
| 1777818021 | 7.78° C | 60% | 1008.2 hPa | 0 mm | - | - | - |
| 1777817718 | 7.78° C | 60% | 1008 hPa | 0 mm | - | - | - |
| 1777817415 | 7.78° C | 61% | 1008.2 hPa | 0 mm | - | - | - |
| 1777817111 | 7.78° C | 58% | 1008.2 hPa | 0 mm | - | - | - |
| 1777816808 | 8.33° C | 57% | 1008.2 hPa | 0 mm | - | - | - |
| 1777816506 | 7.78° C | 62% | 1007.9 hPa | 0 mm | - | - | - |
| 1777816202 | 7.78° C | 59% | 1008 hPa | 0 mm | - | - | - |
| 1777815900 | 7.78° C | 61% | 1008 hPa | 0 mm | - | - | - |
| 1777815597 | 7.78° C | 62% | 1007.9 hPa | 0 mm | - | - | - |
| 1777815295 | 7.78° C | 60% | 1008.3 hPa | 0 mm | - | - | - |
| 1777814991 | 7.78° C | 60% | 1008.3 hPa | 0 mm | - | - | - |
| 1777814688 | 7.78° C | 61% | 1007.9 hPa | 0 mm | - | - | - |
| 1777814384 | 7.22° C | 63% | 1008.4 hPa | 0 mm | - | - | - |
| 1777814081 | 7.22° C | 62% | 1008.2 hPa | 0 mm | - | - | - |
| 1777813778 | 7.22° C | 63% | 1008.3 hPa | 0 mm | - | - | - |
| 1777813476 | 7.22° C | 62% | 1008.2 hPa | 0 mm | - | - | - |
| 1777813173 | 6.67° C | 65% | 1008.3 hPa | 0 mm | - | - | - |
* Rain latest hour (hover to see other rain measurements)
** Current wind speed in m/s (hover to see current wind gust speed)